Погода в Прикаспийском

Россия / Астраханская область     46°13′22″N   47°11′13″E
темп.,
°C
ветер,
м/с
пор.,
м/с
влажн.,
%
обл.,
%
осадки,
мм/ч
давл.,
гПа
погр.,
м
19 апреля, пн
пн1901:00+14в127796 0.0 101736
04:00+14ссв1175100 0.0 101650
07:00+13всв2273100 0.0 101696
10:00+18ююв3355100 0.0 1016625
13:00+20юз6644100 0.0 10151315
16:00+19юз4548100 0.0 1014921
19:00+14з2386100 4.5 1016207
22:00+15юз2386100 6.1 1016172
20 апреля, вт
вт2001:00+15ю3590100 0.8 1015227
04:00+14юв4691100 0.8 1014176
07:00+14вюв5789100 0.0 1014254
10:00+14в71085100 0.6 1014449
13:00+20вюв111358100 0.0 10131120
16:00+20вюв121550100 0.0 10111028
19:00+17вюв111863100 0.1 1010701
22:00+15вюв81865100 0.1 1011561
21 апреля, ср
ср2101:00+15вюв81564100 0.1 1011448
04:00+14всв4668100 0.1 1013241
07:00+14всв2670100 0.2 1014329
10:00+15св4571100 1.4 1016547
13:00+18св446058 0.0 10161017
16:00+19ссв555489 0.1 10161331
19:00+15ссз9968100 0.0 1018659
22:00+13с477746 0.0 1019296
22 апреля, чт
чт2201:00+12сз69855 0.1 1019318
04:00+11ссз51086100 0.1 1020345
07:00+11ссз4985100 0.0 1021294
10:00+15ссз6866100 0.0 1021559
13:00+15сз3465100 0.9 1023725
16:00+17ссз355378 2.0 10221160
19:00+18с3452100 0.0 1022205
22:00+15с2261100 0.0 102217
23 апреля, пт
пт2301:00+13ссз236792 0.0 102129
04:00+13сз3469100 0.0 102172
07:00+13ссз4667100 0.0 1021180
10:00+16ссз4453100 0.0 1021621
13:00+19сз4546100 0.0 10211614
16:00+20сз563884 0.1 10202313
19:00+19сз563770 0.0 1020619
22:00+16сз234419 0.0 102023